Regional Weather Roundup
Issued by NWS Boston, MA

Home | Current Version | Previous Version | Text Only | Print | Product List | Glossary On
Versions: 1 2 3 4 5 6 7 8 9 10 11 12 13 14 15 16 17 18 19 20 21 22 23 24 25 26 27 28 29 30 31 32 33 34 35 36 37 38 39 40 41 42 43 44 45 46 47 48 49 50
000
ASUS41 KBOX 210310
RWRBOX

REGIONAL WEATHER ROUNDUP
NATIONAL WEATHER SERVICE TAUNTON MA
1000 PM EST MON FEB 20 2017

NOTE:  "FAIR" INDICATES FEW OR NO CLOUDS BELOW 12,000 FEET WITH NO
SIGNIFICANT WEATHER AND/OR OBSTRUCTIONS TO VISIBILITY.

MAZALL-210400-
EASTERN MASSACHUSETTS

CITY           SKY/WX    TMP DP  RH WIND       PRES   REMARKS
BOSTON         CLEAR     37  15  40 NW10      30.35R WCI  30
BEVERLY        CLEAR     28  15  58 NW8       30.33R WCI  20
LAWRENCE       CLEAR     30  14  51 CALM      30.35R
BEDFORD        CLEAR     30  12  47 NW6       30.33R WCI  24
BLUE HILL      NOT AVBL
NORWOOD        CLEAR     28  18  66 CALM      30.34R
MARSHFIELD     CLEAR     28  25  86 NW5       30.32R WCI  23
PLYMOUTH       CLEAR     25  22  88 CALM      30.32R
TAUNTON        CLEAR     24  21  88 CALM      30.33R
NEW BEDFORD    CLEAR     28  23  81 CALM      30.32R
$$

MAZALL-210400-
CAPE COD AND THE ISLANDS

CITY           SKY/WX    TMP DP  RH WIND       PRES   REMARKS
FALMOUTH       CLEAR     28  25  86 MISG      30.32S
HYANNIS        CLEAR     35  24  64 N5        30.29R WCI  31
CHATHAM        CLEAR     34  22  61 NW3       30.31R
PROVINCETOWN   CLEAR     40  25  55 NE12G18   30.31R
NANTUCKET      CLEAR     32  25  75 NW6       30.30R WCI  26
MARTHAS VNYRD  CLEAR     25  21  85 NW3       30.32R
$$

MAZALL-210400-
CENTRAL AND WESTERN MASSACHUSETTS

CITY           SKY/WX    TMP DP  RH WIND       PRES   REMARKS
WORCESTER      CLEAR     31  10  41 NW10      30.31R WCI  22
FITCHBURG      CLEAR     28  16  60 NW3       30.35R
ORANGE         CLEAR     24  15  68 CALM      30.35R
SPRINGFIELD    CLEAR     26  13  59 NE3       30.34S
WESTFIELD      CLEAR     27  13  55 CALM      30.35S
NORTH ADAMS    CLOUDY    20  12  71 CALM      30.37R
PITTSFIELD     CLEAR     26   8  46 CALM      30.31R
$$

RIZALL-210400-
RHODE ISLAND

CITY           SKY/WX    TMP DP  RH WIND       PRES   REMARKS
PROVIDENCE     CLEAR     36  13  38 N7        30.34S WCI  30
NEWPORT        CLEAR     32  18  56 N3        30.33R
BLOCK ISLAND   CLEAR     35  23  61 N3        30.34R
SMITHFIELD     CLEAR     30  15  53 NW5       30.33R WCI  25
WESTERLY       CLEAR     34  13  41 N3        30.34S
$$

CTZALL-210400-
CONNECTICUT

CITY           SKY/WX    TMP DP  RH WIND       PRES   REMARKS
BRADLEY INTL   PTCLDY    32  10  40 N7        30.35S WCI  26
HARTFORD       CLEAR     34  12  40 N6        30.36R WCI  29
BRIDGEPORT     CLEAR     39  11  31 N7        30.35R
DANBURY        CLEAR     34   8  33 CALM      30.34S
GROTON         CLEAR     35  15  44 N6        30.34R WCI  30
NEW HAVEN      CLEAR     33  14  45 N7        30.34S WCI  27
CHESTER        FAIR      36   9  32 N5        30.33R WCI  32
MERIDEN        CLEAR     37  10  32 CALM      30.35R
WILLIMANTIC    CLEAR     28  17  63 CALM      30.36R
OXFORD         CLEAR     30  10  43 N6        30.33S WCI  24
$$

MEZ002-015-021-024-NHZ003-005-008-011-012-014-VTZ005-008-210400-
NORTHERN NEW ENGLAND

CITY           SKY/WX    TMP DP  RH WIND       PRES   REMARKS
PORTLAND ME    CLEAR     27  14  58 W7        30.32F WCI  19
BANGOR ME      CLEAR     27  13  55 N9        30.32R WCI  18
CONCORD NH     CLEAR     21  15  78 CALM      30.36R
MANCHESTER NH  CLEAR     31  13  47 NW6       30.34R WCI  25
NASHUA NH      CLEAR     27  17  66 W5        30.36R WCI  22
PORTSMOUTH NH  CLEAR     30  13  50 W5        30.33R WCI  25
JAFFREY NH     CLEAR     20  14  77 CALM      30.32S
KEENE NH       CLEAR     24  16  71 CALM      30.37R
BURLINGTON VT  CLOUDY    25  16  68 CALM      30.42R
MT. WASHINGTON CLEAR     12   0  57 NE37        N/A  WCI -11
$$

NYZ052-076-210400-
EASTERN NEW YORK

CITY           SKY/WX    TMP DP  RH WIND       PRES   REMARKS
ALBANY         CLEAR     30  12  47 N3        30.40R
NEW YORK CITY  PTCLDY    45  15  30 NE14G25   30.34R
$$

ANZALL-210400-
MARINE OBSERVATIONS

STATION/POSITION TIME  TEMP    WIND        PRES    VSBY  WAVE
                       AIR SEA DIR/SP/G                  HT/PER
                 (UTC) (F)     (DEG/KT/KT) (MB)    (MI)  (FT/S)
BOSTON BUOY      0150   40 42  350/ 12/ 14 1025.5          4/ 6
BUZZARDS BAY     0200   36     360/  6/  6 1027.3R
NANTUCKET SOUND  0150   38 38  350/  8/ 10 1025.5          1/ 7
MASS BAY-STELLWA 0204   40 40   10/ 17/ 21 1025.2R         3/ 5
ISLE OF SHOALS   0200   37     360/ 11/ 12 1026.2R
S OF BLOCK IS    0255      43                N/A           3/ 4
$$

......................KEY.........................
  SKY/WX - SKY CONDITION/PRESENT WEATHER
  TMP    - TEMPERATURE IN FAHRENHEIT
  DWPT   - DEWPOINT IN FAHRENHEIT
  RH     - RELATIVE HUMIDITY IN PERCENT
  WIND   - DIRECTION AND SPEED IN MPH
  PRES   - MEAN SEA LEVEL PRESSURE IN INCHES OF HG
  WCI    - WIND CHILL INDEX
  VSB    - VISIBILITY IN MILES
  HX     - HEAT INDEX
  TC     - TEMPERATURE IN CELSIUS
  VRB    - VARIABLE WIND DIRECTION
  N/A    - NOT AVAILABLE



USA.gov is the U.S. government's official web portal to all federal, state and local government web resources and services.